When you browse on this site, cookies collect data to enhance your experience and personalize the content and advertising you see.
Visit our Privacy Policy to learn more. By continuing to use the site, you agree to this use of cookies and data.
  • In Spain
  • List of Countries
  • For 7 days
  • Water Temperature
  • Satellite Maps
  • Weather Map
  • Weather Widgets
  • user-avatar
    Login

    Hourly Weather Patna

    Today, 18 February, Monday

    Time Temperature Precipitation Wind Pressure Humidity
    00:00 +17°C° 0 mm 2 mps 752 mmHg 79%
    01:00 +17°C° 0 mm 2 mps 752 mmHg 79%
    02:00 +16°C° 0 mm 2 mps 752 mmHg 80%
    03:00 +16°C° 0 mm 2 mps 752 mmHg 80%
    04:00 +16°C° 0 mm 2 mps 752 mmHg 82%
    05:00 +15°C° 0 mm 2 mps 752 mmHg 83%
    06:00 +13°C° 0 mm 3 mps 752 mmHg 87%
    07:00 +14°C° 0 mm 3 mps 753 mmHg 81%
    08:00 +16°C° 0 mm 3 mps 753 mmHg 76%
    09:00 +18°C° 0 mm 4 mps 754 mmHg 70%
    10:00 +20°C° 0 mm 3 mps 754 mmHg 62%
    11:00 +21°C° 0 mm 3 mps 754 mmHg 54%
    12:00 +23°C° 0 mm 4 mps 754 mmHg 46%
    13:00 +25°C° 0 mm 3 mps 754 mmHg 44%
    14:00 +26°C° 0 mm 3 mps 753 mmHg 41%
    15:00 +27°C° 0 mm 3 mps 753 mmHg 38%
    16:00 +25°C° 0 mm 2 mps 753 mmHg 42%
    17:00 +24°C° 0 mm 2 mps 752 mmHg 46%
    18:00 +23°C° 0 mm 1 mps 752 mmHg 51%
    19:00 +22°C° 0 mm 1 mps 752 mmHg 52%
    20:00 +21°C° 0 mm 1 mps 752 mmHg 54%
    21:00 +18°C° 0 mm 0 mps 753 mmHg 55%
    22:00 +18°C° 0 mm 0 mps 753 mmHg 56%
    23:00 +18°C° 0 mm 0 mps 753 mmHg 57%

    Tomorrow, 19 February, Tuesday

    Time Temperature Precipitation Wind Pressure Humidity
    00:00 +17°C° 0 mm 0 mps 753 mmHg 58%
    01:00 +17°C° 0 mm 0 mps 753 mmHg 58%
    02:00 +20°C° 0 mm 1 mps 753 mmHg 57%
    03:00 +20°C° 0 mm 1 mps 753 mmHg 57%
    04:00 +19°C° 0 mm 1 mps 753 mmHg 58%
    05:00 +19°C° 0 mm 1 mps 753 mmHg 60%
    06:00 +18°C° 0 mm 1 mps 753 mmHg 62%
    07:00 +20°C° 0 mm 1 mps 754 mmHg 59%
    08:00 +20°C° 0 mm 2 mps 755 mmHg 57%
    09:00 +21°C° 0 mm 2 mps 755 mmHg 54%
    10:00 +24°C° 0 mm 2 mps 756 mmHg 50%
    11:00 +26°C° 0 mm 1 mps 756 mmHg 45%
    12:00 +28°C° 0 mm 1 mps 756 mmHg 40%
    13:00 +29°C° 0 mm 1 mps 755 mmHg 38%
    14:00 +29°C° 0 mm 1 mps 755 mmHg 35%
    15:00 +30°C° 0 mm 1 mps 754 mmHg 33%
    16:00 +29°C° 0 mm 1 mps 754 mmHg 37%
    17:00 +27°C° 0 mm 1 mps 754 mmHg 41%
    18:00 +26°C° 0 mm 1 mps 753 mmHg 45%
    19:00 +25°C° 0 mm 1 mps 754 mmHg 46%
    20:00 +24°C° 0 mm 1 mps 755 mmHg 48%
    21:00 +23°C° 0 mm 1 mps 755 mmHg 49%
    22:00 +22°C° 0 mm 1 mps 755 mmHg 52%
    23:00 +20°C° 0 mm 2 mps 756 mmHg 54%

    Day after tomorrow, 20 February, Wednesday

    Time Temperature Precipitation Wind Pressure Humidity
    00:00 +20°C° 0 mm 2 mps 756 mmHg 57%
    01:00 +20°C° 0 mm 1 mps 756 mmHg 60%
    02:00 +19°C° 0 mm 1 mps 755 mmHg 63%
    03:00 +19°C° 0 mm 1 mps 755 mmHg 67%
    04:00 +18°C° 0 mm 1 mps 755 mmHg 68%
    05:00 +18°C° 0 mm 1 mps 755 mmHg 70%
    06:00 +18°C° 0 mm 1 mps 755 mmHg 72%
    07:00 +19°C° 0 mm 1 mps 756 mmHg 67%
    08:00 +21°C° 0 mm 1 mps 757 mmHg 63%
    09:00 +23°C° 0 mm 1 mps 758 mmHg 59%
    10:00 +25°C° 0 mm 1 mps 758 mmHg 53%
    11:00 +27°C° 0 mm 1 mps 758 mmHg 48%
    12:00 +28°C° 0 mm 1 mps 758 mmHg 42%
    13:00 +29°C° 0 mm 2 mps 757 mmHg 39%
    14:00 +30°C° 0 mm 3 mps 756 mmHg 36%
    15:00 +31°C° 0 mm 3 mps 756 mmHg 33%
    16:00 +29°C° 0 mm 3 mps 756 mmHg 38%
    17:00 +28°C° 0 mm 2 mps 755 mmHg 43%
    18:00 +26°C° 0 mm 2 mps 755 mmHg 48%
    19:00 +25°C° 0 mm 2 mps 756 mmHg 50%
    20:00 +24°C° 0 mm 2 mps 757 mmHg 52%
    21:00 +23°C° 0 mm 2 mps 757 mmHg 54%
    22:00 +21°C° 0 mm 2 mps 757 mmHg 56%
    23:00 +21°C° 0 mm 2 mps 758 mmHg 58%

    21 February, Thursday

    Time Temperature Precipitation Wind Pressure Humidity
    00:00 +20°C° 0 mm 2 mps 758 mmHg 60%
    01:00 +20°C° 0 mm 2 mps 757 mmHg 63%
    02:00 +19°C° 0 mm 2 mps 757 mmHg 65%
    03:00 +19°C° 0 mm 2 mps 757 mmHg 67%
    04:00 +19°C° 0 mm 1 mps 756 mmHg 69%
    05:00 +19°C° 0 mm 1 mps 756 mmHg 70%
    06:00 +16°C° 0 mm 0 mps 756 mmHg 72%
    07:00 +18°C° 0 mm 0 mps 757 mmHg 67%
    08:00 +22°C° 0 mm 1 mps 757 mmHg 62%
    09:00 +23°C° 0 mm 1 mps 758 mmHg 58%
    10:00 +25°C° 0 mm 1 mps 758 mmHg 52%
    11:00 +27°C° 0 mm 1 mps 758 mmHg 46%
    12:00 +27°C° 0 mm 0 mps 758 mmHg 40%
    13:00 +30°C° 0 mm 1 mps 757 mmHg 37%
    14:00 +31°C° 0 mm 1 mps 756 mmHg 35%
    15:00 +31°C° 0 mm 2 mps 755 mmHg 33%
    16:00 +30°C° 0 mm 1 mps 754 mmHg 37%
    17:00 +29°C° 0 mm 1 mps 754 mmHg 41%
    18:00 +28°C° 0 mm 1 mps 754 mmHg 45%
    19:00 +26°C° 0 mm 1 mps 754 mmHg 46%
    20:00 +25°C° 0 mm 1 mps 755 mmHg 48%
    21:00 +24°C° 0 mm 1 mps 755 mmHg 49%
    22:00 +22°C° 0 mm 0 mps 755 mmHg 50%
    23:00 +21°C° 0 mm 0 mps 755 mmHg 52%

    22 February, Friday

    Time Temperature Precipitation Wind Pressure Humidity
    00:00 +21°C° 0 mm 0 mps 754 mmHg 53%
    01:00 +23°C° 0 mm 1 mps 754 mmHg 53%
    02:00 +23°C° 0 mm 1 mps 754 mmHg 54%
    03:00 +23°C° 0 mm 1 mps 753 mmHg 54%
    04:00 +22°C° 0 mm 1 mps 753 mmHg 56%
    05:00 +21°C° 0 mm 1 mps 753 mmHg 58%
    06:00 +21°C° 0 mm 1 mps 753 mmHg 61%
    07:00 +22°C° 0 mm 1 mps 754 mmHg 57%
    08:00 +24°C° 0 mm 1 mps 755 mmHg 54%
    09:00 +25°C° 0 mm 1 mps 756 mmHg 50%
    10:00 +27°C° 0 mm 1 mps 756 mmHg 46%
    11:00 +29°C° 0 mm 1 mps 755 mmHg 41%
    12:00 +31°C° 0 mm 1 mps 755 mmHg 36%
    13:00 +32°C° 0 mm 2 mps 754 mmHg 35%
    14:00 +34°C° 0 mm 2 mps 754 mmHg 33%
    15:00 +35°C° 0 mm 3 mps 753 mmHg 32%
    16:00 +34°C° 0 mm 2 mps 752 mmHg 36%
    17:00 +31°C° 0 mm 2 mps 752 mmHg 40%
    18:00 +30°C° 0 mm 2 mps 752 mmHg 45%
    19:00 +29°C° 0 mm 2 mps 752 mmHg 47%
    20:00 +27°C° 0 mm 2 mps 753 mmHg 48%
    21:00 +26°C° 0 mm 2 mps 754 mmHg 50%
    22:00 +26°C° 0 mm 2 mps 753 mmHg 52%
    23:00 +25°C° 0 mm 2 mps 753 mmHg 55%

    23 February, Saturday

    Time Temperature Precipitation Wind Pressure Humidity
    00:00 +24°C° 0 mm 3 mps 753 mmHg 57%
    01:00 +24°C° 0 mm 2 mps 753 mmHg 59%
    02:00 +23°C° 0 mm 2 mps 753 mmHg 62%
    03:00 +21°C° 0 mm 2 mps 752 mmHg 65%
    04:00 +21°C° 0 mm 2 mps 752 mmHg 65%
    05:00 +20°C° 0 mm 2 mps 752 mmHg 66%
    06:00 +20°C° 0 mm 3 mps 753 mmHg 67%
    07:00 +21°C° 0 mm 3 mps 753 mmHg 62%
    08:00 +24°C° 0 mm 3 mps 754 mmHg 58%
    09:00 +25°C° 0 mm 3 mps 755 mmHg 54%
    10:00 +27°C° 0 mm 4 mps 754 mmHg 47%
    11:00 +30°C° 0 mm 4 mps 754 mmHg 40%
    12:00 +33°C° 0 mm 4 mps 754 mmHg 34%
    13:00 +33°C° 0 mm 4 mps 753 mmHg 33%
    14:00 +34°C° 0 mm 4 mps 752 mmHg 32%
    15:00 +34°C° 0 mm 5 mps 752 mmHg 31%
    16:00 +33°C° 0 mm 4 mps 752 mmHg 35%
    17:00 +30°C° 0 mm 4 mps 751 mmHg 39%
    18:00 +29°C° 0 mm 3 mps 751 mmHg 43%
    19:00 +28°C° 0 mm 3 mps 752 mmHg 43%
    20:00 +27°C° 0 mm 3 mps 752 mmHg 43%
    21:00 +26°C° 0 mm 3 mps 753 mmHg 43%
    22:00 +25°C° 0 mm 3 mps 753 mmHg 44%
    23:00 +25°C° 0 mm 3 mps 753 mmHg 45%
    Show more